User: anonymous   Login
Location: Casone le Fosse
(44.6547°N, 12.1103°E)
Time: 20:19:23
(UTC+00:00)
Language:

Cosmos 1302 Rocket - Orbit

View from above orbital plane
View from above orbital plane
View from above satellite
View from above satellite

Ground track
Ground track

The orbit data is extracted from the following two-line orbital elements,

1 12792U 81084B   21016.61412438  .00000033  00000-0  19609-4 0  9996
2 12792  74.0298 144.6490 0012572 114.1767 246.0702 14.37606220 62892
Epoch (UTC): 16 January 2021 14:44:20
Eccentricity: 0.0012572
inclination: 74.0298°
perigee height: 757 km
apogee height: 775 km
right ascension of ascending node: 144.6490°
argument of perigee: 114.1767°
revolutions per day: 14.37606220
mean anomaly at epoch: 246.0702°
orbit number at epoch: 6289

The dashed part of the orbit path shows where the satellite is in the earth's shadow,  

DLR